Tracking 18785 objects as of 20-August-2017
HD Live streaming from Space Station
objects crossing your sky now

SL-12 R/B(AUX MOTOR)

Track SL-12 R/B(AUX MOTOR) now!


NORAD ID: 25053
Int'l Code: 1997-070E
Perigee: 1,242.4 km
Apogee: 32,920.3 km
Inclination: 45.9 °
Period: 595.7 minutes
Semi major axis: 23452 km
RCS: 0.8237 m2 (medium)
Launch date: November 12, 1997
Source: Commonwealth of Independent States (former USSR) (CIS)
Launch site: TYURATAM MISSILE AND SPACE COMPLEX (TTMTR)

Note: This is a ROCKET BODY
Your satellite tracking list
Your tracking list is empty





NASA's NSSDC Master Catalog

Two Line Element Set (TLE):
1 25053U 97070E   17231.86665124 -.00000067 +00000-0 +76900-2 0  9998
2 25053 045.8955 123.1378 6753677 177.3704 190.0692 02.41726532173963
Source of the keplerian elements: AFSPC